Tracking 30009 objects as of 7-Dec-2024
HD Live streaming from Space Station
objects crossing your sky now

STARLINK-30379

Track STARLINK-30379 now!
10-day predictions
STARLINK-30379 is classified as:


NORAD ID: 57811
Int'l Code: 2023-138D
Perigee: 565.4 km
Apogee: 567.0 km
Inclination: 43.0 °
Period: 95.8 minutes
Semi major axis: 6937 km
RCS: Unknown
Launch date: September 9, 2023
Source: United States (US)
Launch site: AIR FORCE EASTERN TEST RANGE (AFETR)
Your satellite tracking list
Your tracking list is empty




NASA's NSSDC Master Catalog

Two Line Element Set (TLE):
1 57811U 23138D   24341.99405198 -.00000112  00000-0  68095-5 0  9996
2 57811  43.0027 203.3298 0001178 277.9256  82.1452 15.02532452 69851
Source of the keplerian elements: AFSPC